Location: Az?znagar
(16.8373°N, 80.5091°E)
Time: 10:31:46
(UTC+00:00)

Delta 168 - Pass Details

Date: 04 December 2021
Orbit: 394 x 2040 km, 25.3° (Epoch: 16 January)

Event Time Altitude Azimuth Distance (km) Brightness Sun altitude
Exits shadow 00:06:24 10° 261° (W) 2,450 5.6 -11.1°
Reaches altitude 10° 00:06:25 10° 261° (W) 2,442 5.6 -11.1°
Maximum altitude 00:12:22 71° 344° (NNW) 1,169 4.3 -9.8°
Drops below altitude 10° 00:21:37 10° 68° (ENE) 3,702 7.8 -7.7°
Sets 00:25:26 0° 70° (ENE) 4,933 8.5 -6.9°
